Location: Dappach
(48.9767°N, 9.6998°E)
Time: 13:23:34
(UTC+00:00)

deb Kosmos-1275 - Visible Passes

Search period start: 03 October 2024 00:00
Search period end: 13 October 2024 00:00
Orbit: 933 x 992 km, 82.9° (Epoch: 03 October)

Date Brightness Start Highest point End Pass type
(mag) Time Alt. Az. Time Alt. Az. Time Alt. Az.
03 Oct ? 01:20:44 10° NNW 01:21:55 16° NNW 01:21:55 16° NNW visible
03 Oct ? 23:57:04 10° N 23:58:45 19° N 23:58:45 19° N visible
04 Oct ? 01:42:46 10° NNW 01:43:08 12° NNW 01:43:08 12° NNW visible
04 Oct ? 22:34:51 10° NNE 22:35:35 12° NNE 22:35:35 12° NNE visible
05 Oct ? 00:18:36 10° N 00:19:58 18° N 00:19:58 18° N visible
05 Oct ? 22:55:42 10° N 22:56:49 14° NNE 22:56:49 14° NNE visible
06 Oct ? 00:40:17 10° NNW 00:41:12 15° NNW 00:41:12 15° NNW visible
06 Oct ? 23:16:56 10° N 23:18:04 15° N 23:18:04 15° N visible
07 Oct ? 01:02:09 10° NNW 01:02:27 11° NNW 01:02:27 11° NNW visible
07 Oct ? 23:38:21 10° N 23:39:20 15° N 23:39:20 15° N visible
08 Oct ? 22:15:52 10° NNE 22:16:14 11° NNE 22:16:14 11° NNE visible
08 Oct ? 23:59:56 10° N 00:00:37 14° N 00:00:37 14° N visible
09 Oct ? 22:36:53 10° N 22:37:31 13° NNE 22:37:31 13° NNE visible
10 Oct ? 00:21:39 10° NNW 00:21:54 11° NNW 00:21:54 11° NNW visible
10 Oct ? 22:58:10 10° N 22:58:48 13° N 22:58:48 13° N visible
11 Oct ? 23:19:38 10° N 23:20:07 12° N 23:20:07 12° N visible
12 Oct ? 21:56:56 10° NNE 21:57:03 10° NNE 21:57:03 10° NNE visible
12 Oct ? 23:41:15 10° NNW 23:41:25 11° NNW 23:41:25 11° NNW visible
